GFSMA_925_temp_159.txt.gz
Temp
23 23 24 24 24 25 25 25 25 26 26 26 26 27 27 28 27 27 26 26 25 25 24 23 22 22 22 20 21 21 20 21 21 22 22 22 21 22 22 22 21 21 21
24 24 24 24 24 24 25 25 26 26 26 27 27 27 28 27 27 27 27 26 25 25 24 24 24 23 23 22 21 21 21 22 22 22 22 22 22 22 22 22 22 21 21
25 24 25 24 24 24 25 26 26 26 27 27 27 27 27 27 27 27 26 26 26 25 25 25 24 24 24 23 22 22 22 22 22 22 22 22 22 22 22 22 22 21 21
25 25 25 24 25 25 26 26 26 26 27 28 28 28 27 28 28 27 27 26 26 26 25 25 25 25 25 24 23 23 22 22 23 23 23 22 22 22 22 22 22 22 22
24 25 25 25 25 25 25 26 26 25 26 27 27 27 27 27 28 27 27 26 26 25 25 26 26 26 26 25 24 23 23 22 23 23 23 23 22 22 22 22 22 22 22
24 25 25 25 25 25 25 25 26 26 26 26 27 27 26 26 27 27 26 26 25 25 26 27 27 26 26 25 24 24 24 23 23 22 22 22 22 22 22 22 22 22 22
25 25 25 25 25 25 25 25 25 26 25 26 26 26 27 26 26 27 27 27 27 27 28 27 27 26 26 25 25 24 24 23 23 23 23 22 22 22 22 22 22 22 22
25 25 25 25 25 26 25 25 25 26 25 25 25 23 20 24 26 26 26 26 27 27 27 27 27 26 26 25 25 25 24 23 23 23 23 23 23 22 22 22 22 22 22
25 25 25 25 25 25 25 25 25 25 25 25 25 25 21 21 21 26 26 26 26 27 27 28 27 27 26 26 25 24 25 24 23 23 23 23 22 22 22 22 22 22 21
25 25 25 25 25 25 25 25 25 25 25 25 25 25 24 24 21 21 26 27 26 27 27 28 27 26 26 26 25 24 24 24 24 23 22 22 22 22 21 21 21 21 21
25 25 25 25 25 25 25 25 25 25 24 24 25 25 25 24 23 21 21 24 27 26 27 28 28 26 26 26 25 24 23 24 23 23 23 22 22 21 21 21 21 21 21
26 25 25 25 25 24 25 25 25 25 24 24 24 24 24 24 24 22 19 21 23 26 26 28 27 27 26 26 24 24 23 23 23 22 22 22 21 21 20 20 20 20 20
25 25 25 25 25 25 25 25 24 24 24 24 24 24 24 24 24 23 22 22 21 25 25 25 26 25 25 26 25 24 23 22 22 22 22 21 21 21 20 20 20 20 21
25 25 25 25 25 25 25 25 24 24 24 24 24 24 24 24 24 24 24 23 20 21 24 25 25 25 25 25 25 23 23 22 22 22 22 21 21 20 20 20 20 20 20
25 25 25 25 25 25 25 25 24 24 24 24 24 24 23 24 24 24 23 23 23 21 20 24 25 26 25 25 24 24 23 22 22 22 21 21 20 20 20 20 20 20 20
25 25 25 25 25 25 25 25 24 24 24 24 24 24 24 24 24 24 24 24 24 23 20 25 25 25 24 24 23 22 22 21 21 21 21 20 20 19 19 19 19 19 19
25 25 25 25 25 25 25 24 24 24 24 24 24 23 24 24 24 24 24 24 24 24 21 24 25 25 24 24 23 22 22 21 20 20 20 20 19 19 19 19 19 19 19
24 24 24 25 24 25 25 24 24 24 24 24 24 24 23 24 24 24 23 24 24 24 23 22 23 24 24 23 22 21 21 20 20 20 20 19 19 18 18 18 18 18 18
24 24 24 24 24 24 24 25 25 24 24 24 24 24 24 24 24 24 24 23 23 23 23 22 23 23 23 22 21 20 20 19 19 19 19 19 18 18 18 18 17 17 17
23 22 22 22 23 23 23 24 24 24 24 24 24 24 24 24 24 24 24 23 23 23 22 22 22 21 22 21 21 19 18 18 18 18 18 18 18 17 17 17 17 16 16
24 22 22 23 24 22 23 23 22 23 24 24 24 24 24 24 24 24 23 23 23 23 22 21 21 21 21 20 19 19 18 17 17 17 17 17 17 16 16 16 16 16 16
23 22 21 21 22 22 23 23 22 20 23 23 23 24 24 23 23 24 23 23 23 23 22 21 21 20 21 21 20 19 18 16 16 17 17 16 16 16 16 16 16 16 15
19 20 21 21 19 20 21 22 22 21 20 23 24 24 23 23 23 23 23 23 23 23 23 23 22 22 21 22 21 19 18 18 18 18 17 15 15 15 16 16 16 15 15
19 18 19 18 18 19 19 19 19 19 19 21 23 23 22 22 23 23 23 23 23 23 23 23 22 23 22 22 22 22 21 19 18 17 16 15 15 14 15 15 16 15 15
17 17 18 18 17 18 19 19 18 18 19 19 21 21 22 22 22 23 24 23 23 22 22 22 22 22 22 22 21 20 18 17 15 15 16 16 15 15 15 15 15 15 15
16 16 16 15 15 15 15 16 16 16 17 18 19 20 21 22 22 22 23 22 21 23 21 21 21 20 20 20 19 19 19 17 16 16 17 17 15 16 14 14 15 15 15

GFSMA_925_temp_162.txt.gz
Temp
22 23 23 24 24 24 24 25 25 26 26 26 26 27 27 27 27 27 26 26 25 23 23 21 21 22 22 22 21 21 21 21 20 21 21 21 21 21 21 21 21 21 21
23 24 24 24 24 24 24 25 25 26 26 27 27 27 27 28 27 27 26 26 26 25 24 24 23 23 22 22 21 21 21 21 21 21 21 21 21 21 21 21 21 21 21
23 24 24 25 25 24 25 25 26 25 26 27 27 27 27 27 27 27 26 26 26 25 25 25 24 23 23 23 23 22 22 22 22 22 22 22 22 22 22 22 21 21 21
24 24 24 25 25 24 25 25 25 26 25 26 27 28 27 27 26 26 26 26 26 26 25 25 24 23 23 24 23 23 23 23 22 22 22 22 22 22 22 22 22 22 21
24 24 25 25 25 24 25 25 25 25 25 25 26 27 27 27 26 26 26 26 26 25 25 25 25 24 24 24 24 24 23 23 22 22 22 22 22 22 22 21 21 21 21
24 24 24 24 25 24 25 25 25 25 25 25 25 26 26 26 26 26 26 25 25 25 24 25 25 25 25 25 24 24 23 23 23 22 22 22 22 22 22 22 22 22 21
24 24 24 24 24 25 25 25 25 25 25 25 25 26 26 26 26 26 26 25 25 25 25 25 25 26 26 26 25 24 23 23 23 22 22 22 22 22 21 22 22 22 22
24 24 24 24 25 25 25 25 24 25 25 25 24 23 22 25 26 27 26 26 26 25 25 25 26 26 27 26 25 24 24 23 23 22 22 22 22 22 22 21 21 21 21
24 24 24 24 25 25 25 25 25 25 25 25 24 24 23 23 21 26 26 26 26 26 26 26 26 26 26 26 26 25 24 23 23 23 22 22 21 21 21 21 21 21 21
24 24 24 24 24 25 25 25 24 25 25 25 24 24 24 24 23 23 26 26 26 26 26 26 27 27 26 26 26 25 24 23 22 22 22 21 21 21 21 21 21 21 21
25 25 24 24 24 24 24 24 25 24 24 24 24 24 24 23 23 21 23 23 27 27 26 27 27 26 25 25 25 24 24 23 22 22 22 21 21 20 20 20 20 20 20
25 25 24 24 24 24 24 24 24 24 24 24 24 24 24 24 23 22 20 21 22 26 26 26 26 26 25 25 25 24 24 23 23 23 22 22 21 20 20 20 20 20 20
25 25 25 25 25 24 24 24 24 24 24 23 24 23 23 23 23 23 22 21 22 24 25 26 25 25 25 25 25 24 23 22 22 22 22 22 21 20 20 19 19 19 20
26 26 25 25 25 24 24 24 24 24 24 23 23 23 23 23 23 23 23 22 22 21 23 26 26 25 25 25 24 24 23 22 22 21 22 21 20 20 20 20 19 20 20
25 25 25 25 24 24 24 24 24 24 24 24 23 23 23 23 23 23 23 22 22 23 23 25 25 25 25 25 24 23 23 22 22 21 21 21 20 20 19 19 19 20 20
25 25 25 25 25 24 24 24 24 24 24 24 23 23 23 23 23 23 23 23 22 22 22 24 25 25 24 24 23 23 22 21 21 21 21 20 20 19 19 19 19 19 19
24 24 24 24 24 24 24 24 24 24 24 24 23 23 23 23 23 23 23 24 22 22 21 23 24 25 24 23 23 22 22 21 21 20 20 20 19 19 19 19 19 19 18
24 24 24 24 24 24 24 24 24 24 24 24 24 23 23 23 23 23 22 23 23 23 22 21 23 23 24 23 22 21 20 20 20 19 19 19 19 19 18 18 18 18 17
24 23 23 24 24 24 23 23 23 23 23 24 24 24 24 24 23 23 23 22 23 23 22 21 21 22 23 21 20 19 19 18 18 18 19 19 18 18 18 17 17 17 16
23 24 24 24 23 23 23 23 23 23 23 23 24 23 24 24 24 24 23 23 23 23 22 21 20 21 21 20 19 19 17 17 17 17 17 18 17 17 17 16 16 16 16
23 24 24 24 24 22 22 22 22 22 22 22 22 22 23 23 23 24 23 23 23 22 22 21 20 20 20 19 19 18 17 17 15 16 16 16 16 16 16 16 16 16 15
23 23 23 22 21 21 21 21 21 20 20 19 20 22 22 22 23 24 24 23 22 22 22 21 20 20 20 21 20 18 17 15 15 16 16 15 16 15 15 15 16 16 16
21 21 22 21 19 18 18 18 19 19 19 19 19 19 20 20 21 23 24 23 23 23 23 22 21 21 21 22 21 18 18 17 17 17 16 13 14 15 15 15 16 16 15
20 19 19 19 19 20 19 18 18 18 18 18 19 19 20 21 20 21 23 23 23 23 23 23 22 22 23 23 21 21 19 17 17 17 16 14 13 13 14 15 15 15 15
18 17 17 17 17 19 18 18 17 16 17 17 18 18 19 20 21 21 22 21 21 22 23 22 22 23 22 22 20 20 18 16 15 15 15 15 13 13 13 13 14 15 15
16 16 15 14 13 13 13 13 14 13 12 13 15 17 18 19 19 19 21 21 19 20 22 22 22 21 20 19 19 18 18 17 15 14 15 14 13 13 12 12 14 14 14

GFSMA_925_temp_165.txt.gz
Temp
22 22 23 23 24 24 23 23 23 24 26 26 25 25 25 25 26 25 25 26 25 24 24 23 22 23 22 22 21 22 21 22 21 21 21 21 21 21 21 21 21 21 21
23 22 24 24 24 24 24 24 25 25 25 25 26 26 27 26 27 27 25 25 25 25 24 24 23 23 22 22 22 22 22 22 21 22 21 22 22 21 21 22 21 21 21
23 23 24 24 25 25 25 25 25 24 25 25 26 26 26 27 27 27 27 25 24 25 24 24 24 23 23 22 22 22 22 22 21 21 22 22 22 22 21 21 21 21 21
23 24 24 24 25 25 25 25 24 25 25 25 25 25 26 27 27 26 25 26 25 25 24 24 23 24 23 23 23 22 23 22 22 22 22 22 22 22 21 21 21 21 21
23 24 24 25 25 25 25 25 24 25 25 25 26 26 25 26 26 26 25 24 25 25 24 24 25 24 24 24 23 23 23 23 23 22 22 22 22 22 21 21 21 22 22
24 24 24 24 25 24 24 25 25 24 24 24 26 27 26 25 26 25 25 25 25 25 25 24 23 24 24 25 24 24 24 24 23 22 22 22 21 21 21 21 21 21 21
24 24 24 24 24 24 24 25 24 24 25 24 25 27 27 26 26 25 24 25 25 25 24 25 24 24 23 24 24 25 25 24 23 22 22 22 21 21 22 21 21 21 21
24 24 24 23 24 23 25 25 25 25 25 24 26 26 28 28 27 26 25 25 25 25 25 25 26 25 25 24 24 24 24 24 23 22 22 22 22 22 21 21 21 21 21
24 24 24 24 24 24 24 24 24 24 26 24 24 25 27 28 27 27 26 26 25 25 25 24 24 24 25 25 24 24 24 23 23 22 22 22 21 21 21 21 21 21 21
24 24 24 24 24 24 24 23 24 24 25 25 25 24 23 23 26 28 28 27 26 26 25 25 25 24 25 25 25 25 24 23 23 22 22 22 21 21 21 21 21 21 21
24 24 24 24 24 24 24 24 23 24 23 24 24 24 24 24 23 24 28 28 28 27 26 25 25 25 24 24 23 24 24 23 23 22 22 21 21 20 20 20 20 20 20
24 25 24 24 24 24 24 24 24 23 23 23 24 24 24 24 25 24 26 27 27 27 27 26 25 25 24 24 24 24 24 23 23 22 22 21 21 20 20 20 20 20 20
24 25 25 25 24 24 24 24 24 23 23 23 22 24 23 24 24 24 24 26 26 27 27 26 25 25 24 23 23 24 23 23 23 22 22 21 20 20 20 20 20 20 20
24 25 25 25 25 24 24 24 23 23 22 23 22 22 23 24 23 24 24 25 27 27 26 26 25 24 24 23 23 24 23 23 22 22 22 21 21 20 20 19 19 20 20
24 25 25 24 24 24 24 24 23 23 22 23 23 23 23 24 23 23 22 23 25 27 28 27 26 25 23 23 23 22 21 22 21 21 21 21 20 20 19 19 19 19 19
25 25 25 25 25 24 24 22 22 23 23 23 23 23 22 23 23 23 22 23 23 24 26 26 26 24 24 23 23 22 21 22 21 21 21 21 20 20 19 19 19 19 19
24 24 24 25 25 24 24 23 23 23 22 23 23 23 23 23 23 23 23 23 22 23 24 26 24 24 23 22 22 21 21 20 20 20 20 20 20 19 19 19 19 18 18
24 24 24 24 24 24 24 23 22 23 22 22 23 23 23 23 22 22 23 22 22 22 22 23 23 24 23 21 21 20 19 19 18 19 19 19 19 19 18 18 18 18 17
23 24 23 23 24 23 23 23 22 22 22 22 22 22 23 23 23 24 23 23 22 23 22 22 23 23 23 21 19 19 19 18 17 19 19 19 18 18 18 18 17 17 17
23 22 22 22 22 22 23 23 22 22 21 22 22 22 22 22 23 23 23 23 23 23 22 22 24 24 21 21 20 19 18 17 17 16 17 16 17 17 17 17 17 17 16
22 22 22 21 21 21 21 22 21 21 21 21 21 21 21 21 22 23 23 23 22 22 22 23 23 22 23 20 20 19 18 17 16 15 15 15 15 15 16 16 16 16 16
21 21 20 20 20 20 20 19 19 20 20 20 21 21 21 21 21 22 23 23 23 22 23 23 24 23 23 22 21 19 18 16 15 15 15 15 15 14 14 15 16 16 15
20 20 19 19 18 18 18 18 18 18 18 19 20 20 20 22 21 21 21 22 23 23 23 23 23 23 24 23 22 19 18 17 17 16 15 15 13 13 14 15 15 15 15
20 20 19 19 18 16 16 16 17 17 17 17 18 19 20 20 21 21 21 22 21 21 22 22 21 22 23 22 22 22 20 18 18 16 15 14 12 12 13 14 14 14 14
18 18 18 17 17 15 15 15 15 13 14 15 16 16 18 19 19 19 20 21 22 22 23 22 22 22 22 22 22 20 19 17 16 15 15 14 12 11 11 11 11 14 13
16 15 14 13 13 13 13 13 12 12 12 12 13 15 15 16 18 18 19 20 20 21 22 21 20 20 19 19 19 19 19 17 16 15 15 14 11 12 10 10 11 12 11

GFSMA_925_temp_168.txt.gz
Temp
25 25 25 25 25 26 26 26 26 27 27 28 28 28 29 29 28 29 28 27 26 26 25 24 24 23 22 22 22 21 21 21 20 19 20 20 21 21 21 21 21 21 21
24 25 25 26 26 26 26 26 26 26 27 29 29 28 28 29 28 27 28 27 26 26 25 25 24 23 23 22 22 22 22 22 22 21 21 21 21 21 22 21 21 21 22
23 24 25 26 26 26 25 26 27 27 28 29 29 29 29 29 29 28 28 28 27 26 26 25 25 24 23 23 23 22 22 23 22 22 22 22 22 22 22 22 22 21 21
23 23 25 26 26 25 27 27 27 28 29 29 29 29 29 29 28 28 28 27 27 27 25 25 25 24 24 23 23 23 23 23 22 22 22 22 21 22 22 22 22 22 21
24 25 26 26 25 26 27 27 28 27 29 29 30 30 29 29 29 29 28 28 27 27 28 26 25 25 25 24 23 23 23 23 23 22 22 22 22 22 22 22 21 21 21
24 24 25 25 25 27 27 27 26 27 27 28 29 30 30 29 29 29 29 28 28 27 27 26 26 25 25 24 24 23 23 23 23 22 22 22 22 22 22 22 22 22 21
24 24 26 25 25 26 26 26 27 27 28 28 29 31 30 30 30 29 29 28 28 28 28 27 27 25 25 24 24 24 23 23 23 23 23 22 22 22 21 22 22 22 21
24 24 25 25 25 27 25 26 26 28 28 27 28 30 31 31 31 30 29 29 28 29 28 27 26 25 24 25 24 24 24 24 23 23 23 22 22 22 21 21 21 21 21
24 24 24 25 25 25 27 25 26 26 28 28 26 28 29 31 31 31 29 29 28 29 29 28 27 27 25 24 24 23 24 24 24 23 23 22 22 21 21 21 21 21 21
24 24 24 24 24 26 25 26 26 26 26 28 28 28 26 26 28 30 31 30 30 30 28 29 29 27 25 26 25 25 24 23 23 23 23 22 22 21 21 21 21 21 20
24 25 24 24 24 24 25 25 25 25 26 26 27 28 27 28 27 27 29 31 30 30 30 29 28 28 27 27 26 24 24 23 23 23 22 22 22 21 20 20 20 20 20
25 24 24 24 24 25 25 25 24 24 25 25 26 26 27 28 29 29 30 29 30 30 30 29 29 28 27 27 26 25 24 23 22 22 22 21 21 21 20 20 20 20 19
27 26 24 24 25 24 24 25 24 24 24 25 25 26 27 27 28 28 28 29 29 29 30 30 29 28 27 26 25 24 24 23 22 22 22 21 21 20 20 19 19 19 20
27 27 25 24 24 24 24 24 24 25 25 25 25 24 26 27 27 28 28 28 29 30 30 29 29 28 27 26 25 24 22 22 22 22 22 22 21 21 20 20 20 20 20
26 25 25 25 25 24 24 24 23 25 25 25 24 25 24 26 27 27 27 27 28 29 30 30 29 27 27 26 26 25 24 22 22 21 21 21 21 20 20 19 20 20 20
24 25 25 25 25 25 24 24 24 25 24 24 25 26 24 26 27 27 27 26 26 26 28 29 29 28 26 26 25 24 24 23 22 21 21 21 20 20 20 19 19 19 19
24 24 24 25 25 25 24 24 24 24 24 24 24 25 25 24 25 26 26 26 26 26 26 28 26 27 25 24 25 24 22 21 20 20 20 20 20 19 19 19 19 19 19
24 24 24 24 24 25 25 24 24 25 25 25 24 24 24 25 24 24 25 26 26 26 26 26 26 26 26 25 23 22 23 22 20 19 19 19 19 19 19 19 18 18 18
24 24 24 24 24 24 24 24 24 24 24 25 25 25 25 25 24 25 26 26 26 25 25 25 26 26 25 24 21 20 20 19 19 19 19 18 18 18 18 18 18 17 17
24 24 24 24 24 24 24 24 24 24 24 24 24 24 24 25 25 24 24 24 25 25 26 25 26 27 26 24 22 20 18 18 18 17 17 17 17 18 17 17 17 17 17
24 24 24 24 24 24 25 24 24 23 23 23 23 23 24 23 23 24 24 23 25 24 26 27 27 27 27 23 22 20 20 18 17 17 16 15 15 16 16 16 16 16 16
24 23 24 24 24 24 24 23 22 22 22 23 23 23 23 23 22 22 22 22 23 23 24 26 28 28 27 25 23 21 19 17 16 16 16 17 16 17 17 16 14 15 15
24 23 23 23 22 20 20 20 19 18 19 20 21 22 23 24 23 23 23 22 22 22 22 23 24 25 26 26 25 21 19 19 19 17 16 15 16 16 15 15 14 14 15
21 21 20 19 19 19 17 18 18 18 18 18 18 18 19 19 21 23 23 24 24 24 22 22 22 24 24 25 24 23 21 20 19 17 16 16 14 14 13 12 13 14 14
18 18 18 18 18 18 16 16 16 16 18 18 18 18 19 19 19 20 20 21 23 23 23 23 23 23 23 24 23 22 21 19 16 15 15 14 13 11 10 10 10 12 13
18 20 19 18 17 17 16 14 13 15 17 18 18 17 17 16 17 18 18 19 20 22 22 22 22 22 22 21 22 22 21 19 17 15 15 14 11 11 10 9 9 10 11

GFSMA_925_temp_171.txt.gz
Temp
27 27 27 28 28 28 29 28 29 28 29 27 30 30 31 30 29 30 27 28 27 27 26 25 24 23 22 22 22 22 21 21 21 21 21 20 20 21 21 22 22 22 21
26 27 26 28 28 29 29 29 28 28 29 31 30 30 30 31 29 29 29 28 28 27 26 26 24 24 23 22 22 22 22 22 22 22 22 22 21 21 22 22 22 22 21
25 27 27 28 29 28 27 28 28 29 29 31 30 30 30 30 31 29 29 30 28 28 27 26 25 24 24 23 22 22 22 22 22 22 22 22 22 22 22 22 22 21 21
25 25 27 28 28 28 29 29 30 30 31 31 31 31 31 31 30 30 29 29 30 29 28 26 26 25 24 24 23 23 23 23 23 23 22 22 22 22 22 22 22 22 22
25 25 28 28 27 29 29 29 30 29 30 31 31 31 31 31 31 29 30 29 29 29 29 27 26 25 24 24 23 23 23 23 23 23 23 22 22 22 22 22 22 22 22
26 25 28 27 26 29 28 29 28 28 29 29 31 32 32 31 31 30 31 30 30 29 29 28 26 25 25 24 24 24 23 23 23 23 22 22 22 22 22 22 22 22 22
26 25 28 26 27 28 26 27 28 28 29 26 28 26 29 31 30 31 31 30 30 30 29 28 25 26 27 25 25 24 23 23 23 23 23 22 22 22 22 22 22 21 21
25 26 26 27 27 28 27 27 27 28 29 28 29 30 20 24 26 30 31 31 30 29 29 28 28 26 25 24 24 25 24 23 23 23 23 23 22 22 22 22 22 22 21
25 25 26 25 26 26 26 26 27 27 28 28 28 29 30 28 29 30 31 31 30 29 30 29 29 27 25 25 24 24 24 24 23 23 23 23 22 22 22 21 21 21 21
25 26 25 25 25 27 26 27 27 27 27 29 29 29 28 28 30 31 31 28 31 28 30 30 28 26 26 26 25 24 25 24 23 23 23 23 22 22 21 21 21 21 21
25 26 26 25 25 25 27 26 26 26 26 28 29 29 29 29 28 29 30 28 30 30 31 29 29 27 27 28 23 25 25 24 23 23 23 22 22 21 21 21 20 20 20
26 26 26 25 25 25 26 26 25 26 26 26 26 27 29 29 30 31 31 31 31 31 30 31 29 28 28 28 27 26 25 24 23 23 22 22 21 21 20 20 20 20 19
28 27 25 25 25 25 25 26 26 26 26 26 26 27 28 29 29 30 30 30 31 31 31 31 29 29 28 26 25 26 25 24 23 22 22 22 21 21 21 20 19 19 19
28 28 25 26 25 25 25 25 25 26 26 26 26 26 26 28 29 29 30 30 30 31 31 31 31 30 29 28 26 26 24 24 23 22 22 22 21 21 20 20 20 20 20
28 27 27 26 26 25 25 25 25 25 26 26 27 27 26 27 28 29 30 30 30 30 31 31 31 30 29 28 27 25 25 24 23 23 22 22 22 21 21 20 20 20 20
26 26 26 26 26 26 26 25 24 25 25 26 26 26 26 27 28 28 28 29 29 29 29 29 29 28 28 27 26 26 24 24 23 22 21 21 21 21 20 20 20 20 20
26 25 25 26 25 26 26 24 24 25 25 24 25 25 26 25 26 27 28 27 27 29 28 28 29 28 26 25 26 25 24 22 22 21 20 20 20 20 20 20 19 19 19
25 25 25 25 25 25 26 25 25 26 26 25 25 25 25 25 24 24 26 26 27 27 27 28 28 28 27 27 25 24 23 22 22 20 19 19 19 19 19 19 19 19 18
25 25 25 24 24 25 25 25 25 25 25 25 26 26 25 24 24 25 25 26 27 26 27 27 27 27 27 26 24 23 22 22 21 20 19 19 19 19 19 19 18 18 18
25 25 25 25 25 25 25 25 25 24 24 25 25 24 24 24 25 24 24 24 25 26 26 26 28 28 28 28 24 22 20 20 20 18 18 18 18 18 18 18 18 17 17
25 25 25 25 25 25 26 26 25 25 24 24 25 24 25 24 24 24 23 24 24 24 25 27 27 27 28 27 25 24 22 19 19 19 18 16 16 17 17 16 17 17 16
25 25 25 25 25 25 23 25 25 25 24 24 24 24 24 24 24 24 24 24 23 23 23 25 27 28 28 27 26 24 22 18 17 18 18 18 17 16 15 15 14 16 15
25 24 24 24 24 23 22 23 23 21 21 22 22 22 23 25 25 24 24 24 23 23 23 22 23 25 26 26 27 24 21 19 20 19 18 17 17 16 16 16 15 14 14
24 24 23 22 23 21 21 20 20 20 19 20 20 20 20 21 21 22 22 22 24 23 23 22 22 22 24 24 25 24 22 21 20 20 18 17 16 14 14 14 13 12 13
22 21 21 21 20 21 20 18 18 17 19 20 20 20 20 20 20 20 19 20 21 22 23 23 23 23 23 23 24 23 22 20 17 17 17 16 14 11 12 11 11 11 12
21 21 21 20 20 19 19 17 16 16 18 19 19 20 20 19 19 18 18 17 17 19 21 22 22 22 23 23 23 22 22 20 18 16 16 15 12 11 10 9 8 9 10

GFSMA_925_temp_174.txt.gz
Temp
27 27 27 27 27 27 28 28 25 27 28 29 29 29 29 29 28 30 29 26 27 26 25 24 24 23 22 22 21 21 21 21 21 21 21 21 21 21 21 21 21 21 21
27 27 27 27 28 27 27 28 28 29 28 28 28 29 30 29 29 29 27 26 27 28 27 26 25 24 23 23 22 21 21 21 21 21 21 20 21 21 21 21 21 21 21
27 25 27 27 28 28 28 29 28 29 29 29 30 30 30 31 30 29 29 26 27 28 27 26 26 25 24 24 23 23 22 22 22 22 21 21 21 21 22 22 22 22 22
26 26 27 27 27 28 28 28 29 30 30 29 30 31 31 30 30 30 29 28 28 25 26 25 25 25 25 24 24 23 23 22 22 22 22 22 22 22 22 22 22 22 22
26 26 26 26 27 28 28 27 29 28 29 29 28 29 27 30 30 31 30 29 29 28 28 26 26 26 25 25 24 24 23 23 23 23 23 23 23 22 22 22 22 21 21
26 26 25 27 27 27 27 28 27 29 28 29 27 27 27 29 29 29 30 30 29 27 27 26 27 27 25 25 25 24 24 23 23 23 23 23 23 22 22 22 22 22 22
26 26 26 27 28 26 26 27 27 28 27 29 27 29 27 28 28 29 29 30 28 28 25 24 28 26 26 25 25 24 24 24 23 23 23 23 23 22 22 22 22 22 22
26 26 26 26 27 26 26 26 27 27 24 28 28 28 21 24 28 29 30 29 29 29 27 26 23 26 25 26 25 25 25 24 23 23 22 23 23 22 22 22 22 22 22
26 25 25 26 26 26 26 26 26 26 27 27 28 27 23 20 25 29 30 30 28 27 24 22 23 22 25 25 24 24 24 24 23 23 22 22 22 22 22 22 22 21 21
25 25 26 25 25 25 26 27 26 26 27 27 28 29 28 28 26 26 29 30 30 29 27 24 25 23 26 23 26 25 24 24 24 23 22 22 22 22 22 21 21 21 21
25 25 26 25 25 25 25 26 26 24 26 26 26 26 28 29 29 27 26 29 30 30 30 28 26 25 25 21 27 26 24 24 24 23 22 22 22 22 21 21 21 21 21
25 25 26 26 25 25 25 26 26 26 26 26 26 26 27 27 28 28 26 28 29 30 31 31 27 25 23 23 25 25 25 24 24 23 22 22 22 22 21 21 21 20 20
26 26 26 26 25 25 25 25 25 25 25 25 25 26 26 27 27 29 29 28 28 30 30 31 29 27 26 25 25 26 25 25 24 23 23 22 22 21 21 20 20 20 19
27 27 26 26 25 25 25 25 25 25 26 25 25 25 26 26 27 27 29 29 26 28 30 30 30 29 28 26 27 26 26 24 24 23 22 22 22 21 21 20 20 20 20
27 27 26 26 25 25 25 25 24 25 25 25 25 25 25 26 27 27 28 28 27 25 25 28 28 27 26 26 26 26 26 25 24 23 22 22 21 21 20 20 20 20 20
27 27 26 25 25 25 25 25 24 24 25 25 25 26 26 26 26 26 27 27 28 26 25 28 28 28 26 26 25 25 25 25 24 23 22 22 21 21 20 20 20 20 20
26 26 26 26 26 26 26 25 24 24 25 24 24 25 25 25 25 25 26 26 27 27 25 26 28 28 27 26 25 25 25 24 24 23 22 21 21 20 20 20 20 20 19
25 26 26 26 25 25 25 25 25 24 25 25 24 24 24 24 25 25 25 25 25 26 26 25 27 27 27 26 26 25 25 23 23 22 22 21 20 20 20 19 19 19 19
25 25 25 25 24 24 24 25 24 24 24 24 25 25 25 25 24 24 24 24 25 25 26 26 26 26 27 27 26 25 24 23 22 22 21 20 20 19 19 19 19 19 18
25 24 25 25 24 24 24 24 25 24 24 24 24 25 24 24 24 24 24 23 23 24 24 24 24 25 25 27 26 25 23 21 21 20 20 20 19 18 18 18 18 18 17
25 25 24 24 25 25 24 25 25 25 25 24 24 24 24 24 24 24 24 23 23 23 24 23 24 24 25 26 26 25 22 20 19 20 20 18 17 18 17 17 17 17 17
25 25 25 25 24 25 25 25 25 25 25 24 24 23 24 24 24 24 24 24 24 23 22 22 22 23 23 25 26 25 23 19 18 19 19 17 17 16 16 16 16 15 15
25 25 24 24 24 24 24 24 22 23 23 23 23 22 22 23 23 23 23 23 23 23 24 23 22 22 23 24 25 24 23 19 19 19 18 18 18 16 16 15 15 15 14
25 24 24 24 24 24 23 20 21 21 21 21 21 21 20 21 21 21 21 20 21 21 22 22 22 22 22 23 23 24 23 22 20 20 18 17 17 15 14 15 14 13 13
24 24 23 23 21 21 21 20 20 20 19 19 19 19 20 20 20 20 20 19 19 19 20 21 21 22 22 23 22 22 22 22 20 18 18 17 14 11 10 10 10 11 10
23 23 21 21 21 20 20 20 18 17 17 17 17 18 19 19 19 19 18 17 17 17 18 18 20 20 21 22 22 23 23 20 19 16 16 15 12 12 9 9 9 9 9